• In Uzbekistan
  • List of Countries
  • For 7 days
  • Water Temperature
  • Satellite Maps
  • Weather Map
  • Weather Widgets
  • user-avatar
    Login

    Hourly Weather Stirling

    Today, 12 December, Tuesday

    Time Temperature Precipitation Wind Pressure Humidity
    00:00 -2°C° 0 mm 2 mps 750 mmHg 90%
    01:00 -2°C° 0 mm 2 mps 750 mmHg 90%
    02:00 -2°C° 0 mm 2 mps 750 mmHg 90%
    03:00 -2°C° 0 mm 2 mps 750 mmHg 90%
    04:00 -2°C° 0 mm 2 mps 751 mmHg 90%
    05:00 -2°C° 0 mm 2 mps 751 mmHg 90%
    06:00 -2°C° 0 mm 2 mps 751 mmHg 90%
    07:00 -2°C° 0 mm 2 mps 751 mmHg 90%
    08:00 -2°C° 0 mm 2 mps 751 mmHg 90%
    09:00 -1°C° 0 mm 2 mps 751 mmHg 90%
    10:00 -1°C° 0 mm 2 mps 751 mmHg 88%
    11:00 +1°C° 0 mm 2 mps 751 mmHg 86%
    12:00 +2°C° 0 mm 2 mps 751 mmHg 84%
    13:00 +1°C° 0 mm 3 mps 750 mmHg 86%
    14:00 +2°C° 0 mm 3 mps 749 mmHg 89%
    15:00 +2°C° 0 mm 3 mps 749 mmHg 91%
    16:00 +1°C° 0.5 mm 4 mps 748 mmHg 91%
    17:00 +1°C° 0.5 mm 4 mps 747 mmHg 92%
    18:00 +1°C° 0.5 mm 5 mps 746 mmHg 92%
    19:00 +2°C° 0.1 mm 5 mps 746 mmHg 92%
    20:00 +2°C° 0.1 mm 5 mps 746 mmHg 92%
    21:00 +2°C° 0.1 mm 5 mps 745 mmHg 91%
    22:00 +3°C° 0 mm 4 mps 745 mmHg 91%
    23:00 +1°C° 0 mm 4 mps 745 mmHg 90%

    Tomorrow, 13 December, Wednesday

    Time Temperature Precipitation Wind Pressure Humidity
    00:00 +1°C° 0 mm 4 mps 745 mmHg 89%
    01:00 +1°C° 0 mm 4 mps 745 mmHg 90%
    02:00 +2°C° 0 mm 3 mps 745 mmHg 90%
    03:00 +2°C° 0 mm 3 mps 745 mmHg 91%
    04:00 +1°C° 0.1 mm 4 mps 744 mmHg 92%
    05:00 +1°C° 0.1 mm 4 mps 743 mmHg 93%
    06:00 +1°C° 0.1 mm 4 mps 742 mmHg 93%
    07:00 +2°C° 0.9 mm 5 mps 741 mmHg 93%
    08:00 +2°C° 0.9 mm 5 mps 740 mmHg 92%
    09:00 +3°C° 0.9 mm 6 mps 739 mmHg 91%
    10:00 +2°C° 0.4 mm 6 mps 739 mmHg 88%
    11:00 +2°C° 0.4 mm 6 mps 739 mmHg 84%
    12:00 +2°C° 0.4 mm 6 mps 738 mmHg 81%
    13:00 +1°C° 0.3 mm 5 mps 738 mmHg 81%
    14:00 +1°C° 0.3 mm 5 mps 738 mmHg 81%
    15:00 0°C° 0.3 mm 5 mps 737 mmHg 80%
    16:00 0°C° 0.1 mm 5 mps 737 mmHg 80%
    17:00 0°C° 0.1 mm 5 mps 737 mmHg 80%
    18:00 -1°C° 0.1 mm 5 mps 737 mmHg 80%
    19:00 -1°C° 0 mm 5 mps 737 mmHg 80%
    20:00 -1°C° 0 mm 4 mps 737 mmHg 80%
    21:00 -2°C° 0 mm 4 mps 737 mmHg 80%
    22:00 -2°C° 0.1 mm 4 mps 737 mmHg 82%
    23:00 -1°C° 0.1 mm 4 mps 737 mmHg 83%

    Day after tomorrow, 14 December, Thursday

    Time Temperature Precipitation Wind Pressure Humidity
    00:00 -1°C° 0.1 mm 4 mps 737 mmHg 84%
    01:00 -1°C° 0.2 mm 4 mps 737 mmHg 84%
    02:00 -1°C° 0.2 mm 4 mps 736 mmHg 85%
    03:00 0°C° 0.2 mm 4 mps 736 mmHg 85%
    04:00 0°C° 0.2 mm 4 mps 736 mmHg 85%
    05:00 0°C° 0.2 mm 4 mps 736 mmHg 85%
    06:00 0°C° 0.2 mm 4 mps 735 mmHg 86%
    07:00 -1°C° 0.1 mm 4 mps 735 mmHg 87%
    08:00 -1°C° 0.1 mm 4 mps 735 mmHg 88%
    09:00 -1°C° 0.1 mm 4 mps 735 mmHg 89%
    10:00 0°C° 0.2 mm 4 mps 735 mmHg 88%
    11:00 +1°C° 0.2 mm 4 mps 735 mmHg 87%
    12:00 +1°C° 0.2 mm 4 mps 735 mmHg 86%
    13:00 +2°C° 0.1 mm 3 mps 735 mmHg 88%
    14:00 +2°C° 0.1 mm 3 mps 734 mmHg 90%
    15:00 +2°C° 0.1 mm 2 mps 734 mmHg 91%
    16:00 +2°C° 0.1 mm 2 mps 734 mmHg 91%
    17:00 +1°C° 0.1 mm 2 mps 735 mmHg 92%
    18:00 +2°C° 0.1 mm 1 mps 735 mmHg 92%
    19:00 +1°C° 0 mm 2 mps 736 mmHg 92%
    20:00 +1°C° 0 mm 2 mps 736 mmHg 91%
    21:00 -1°C° 0 mm 2 mps 737 mmHg 90%
    22:00 +1°C° 0.2 mm 2 mps 738 mmHg 90%
    23:00 +1°C° 0.2 mm 2 mps 739 mmHg 89%

    15 December, Friday

    Time Temperature Precipitation Wind Pressure Humidity
    00:00 0°C° 0.2 mm 3 mps 740 mmHg 89%
    01:00 0°C° 0 mm 3 mps 741 mmHg 87%
    02:00 0°C° 0 mm 3 mps 742 mmHg 86%
    03:00 -2°C° 0 mm 4 mps 743 mmHg 85%
    04:00 -1°C° 0 mm 3 mps 744 mmHg 85%
    05:00 -1°C° 0 mm 3 mps 745 mmHg 85%
    06:00 -2°C° 0 mm 3 mps 746 mmHg 84%
    07:00 -2°C° 0 mm 3 mps 747 mmHg 85%
    08:00 -1°C° 0 mm 3 mps 748 mmHg 85%
    09:00 -1°C° 0 mm 3 mps 749 mmHg 85%
    10:00 0°C° 0 mm 3 mps 749 mmHg 85%
    11:00 0°C° 0 mm 4 mps 750 mmHg 84%
    12:00 +1°C° 0 mm 4 mps 751 mmHg 84%
    13:00 +1°C° 0 mm 4 mps 751 mmHg 85%
    14:00 +1°C° 0 mm 4 mps 752 mmHg 85%
    15:00 0°C° 0 mm 4 mps 752 mmHg 86%
    16:00 0°C° 0 mm 4 mps 753 mmHg 86%
    17:00 0°C° 0 mm 4 mps 753 mmHg 86%
    18:00 0°C° 0 mm 4 mps 754 mmHg 86%
    19:00 -1°C° 0 mm 4 mps 755 mmHg 86%
    20:00 -1°C° 0 mm 3 mps 755 mmHg 87%
    21:00 -1°C° 0 mm 3 mps 756 mmHg 87%
    22:00 -1°C° 0 mm 3 mps 756 mmHg 86%
    23:00 -2°C° 0 mm 3 mps 757 mmHg 85%

    16 December, Saturday

    Time Temperature Precipitation Wind Pressure Humidity
    00:00 -2°C° 0 mm 3 mps 757 mmHg 84%
    01:00 -1°C° 0 mm 3 mps 757 mmHg 85%
    02:00 -1°C° 0 mm 3 mps 757 mmHg 85%
    03:00 -1°C° 0 mm 3 mps 757 mmHg 85%
    04:00 -1°C° 0.3 mm 2 mps 757 mmHg 87%
    05:00 -1°C° 0.3 mm 2 mps 757 mmHg 89%
    06:00 -1°C° 0.3 mm 2 mps 757 mmHg 91%
    07:00 -1°C° 0 mm 2 mps 757 mmHg 90%
    08:00 -2°C° 0 mm 2 mps 757 mmHg 90%
    09:00 -2°C° 0 mm 2 mps 758 mmHg 90%
    10:00 -2°C° 0 mm 3 mps 758 mmHg 87%
    11:00 -1°C° 0 mm 3 mps 758 mmHg 85%
    12:00 0°C° 0 mm 3 mps 758 mmHg 82%
    13:00 -1°C° 0 mm 3 mps 758 mmHg 83%
    14:00 -1°C° 0 mm 3 mps 758 mmHg 83%
    15:00 -1°C° 0 mm 3 mps 758 mmHg 84%
    16:00 -2°C° 0 mm 3 mps 759 mmHg 84%
    17:00 -2°C° 0 mm 3 mps 759 mmHg 84%
    18:00 -4°C° 0 mm 3 mps 759 mmHg 85%
    19:00 -4°C° 0 mm 3 mps 760 mmHg 84%
    20:00 -4°C° 0 mm 3 mps 760 mmHg 84%
    21:00 -4°C° 0 mm 3 mps 760 mmHg 83%
    22:00 -4°C° 0 mm 3 mps 760 mmHg 84%
    23:00 -3°C° 0 mm 2 mps 760 mmHg 84%

    17 December, Sunday

    Time Temperature Precipitation Wind Pressure Humidity
    00:00 -3°C° 0 mm 2 mps 761 mmHg 84%
    01:00 -3°C° 0 mm 2 mps 761 mmHg 85%
    02:00 -3°C° 0 mm 2 mps 761 mmHg 85%
    03:00 -3°C° 0 mm 2 mps 761 mmHg 86%
    04:00 -3°C° 0 mm 2 mps 761 mmHg 86%
    05:00 -4°C° 0 mm 2 mps 761 mmHg 86%
    06:00 -4°C° 0 mm 2 mps 761 mmHg 86%
    07:00 -4°C° 0 mm 2 mps 761 mmHg 86%
    08:00 -4°C° 0 mm 2 mps 761 mmHg 86%
    09:00 -4°C° 0 mm 2 mps 761 mmHg 85%
    10:00 -1°C° 0 mm 1 mps 761 mmHg 84%
    11:00 0°C° 0 mm 1 mps 761 mmHg 82%
    12:00 +1°C° 0 mm 1 mps 761 mmHg 81%
    13:00 0°C° 0 mm 1 mps 761 mmHg 81%
    14:00 0°C° 0 mm 1 mps 761 mmHg 81%
    15:00 0°C° 0 mm 1 mps 761 mmHg 81%
    16:00 -1°C° 0 mm 1 mps 761 mmHg 81%
    17:00 -1°C° 0 mm 1 mps 762 mmHg 81%
    18:00 -1°C° 0 mm 1 mps 762 mmHg 81%
    19:00 -1°C° 0 mm 1 mps 762 mmHg 81%
    20:00 -2°C° 0 mm 1 mps 763 mmHg 80%
    21:00 -2°C° 0 mm 1 mps 763 mmHg 79%
    22:00 -2°C° 0 mm 1 mps 763 mmHg 79%
    23:00 -2°C° 0 mm 1 mps 764 mmHg 78%
    Show more